| time (UTC) | temp F | wind direction | speed knots | gust knots | rain 1hr in | rain 24hr in | rain mn in | humidity % | barometer mb |
| 20260504044534 | 38 | 360 | 8.7 | 17.4 | 0.00 | 0.55 | 0.00 | 81 | 1001.7 |
| 20260504043031 | 38 | 360 | 9.6 | 17.4 | 0.00 | 0.55 | 0.00 | 82 | 1001.7 |
| 20260504041527 | 38 | 321 | 10.4 | 16.5 | 0.00 | 0.55 | 0.00 | 83 | 1001.5 |
| 20260504040024 | 39 | 325 | 11.3 | 17.4 | 0.00 | 0.55 | 0.00 | 84 | 1001.4 |
| 20260504034523 | 39 | 360 | 10.4 | 16.5 | 0.00 | 0.55 | 0.55 | 87 | 1001.3 |
| 20260504033021 | 39 | 286 | 8.7 | 16.5 | 0.00 | 0.55 | 0.55 | 91 | 1001.1 |
| 20260504031520 | 39 | 360 | 7.8 | 14.8 | 0.00 | 0.55 | 0.55 | 92 | 1001.2 |
| 20260504030019 | 39 | 360 | 7.0 | 11.3 | 0.00 | 0.55 | 0.55 | 92 | 1001.1 |
| 20260504024517 | 39 | 360 | 7.0 | 11.3 | 0.00 | 0.56 | 0.55 | 92 | 1001.0 |
| 20260504023017 | 39 | 329 | 7.0 | 12.2 | 0.00 | 0.56 | 0.55 | 92 | 1000.8 |
| 20260504021516 | 39 | 360 | 7.8 | 13.0 | 0.00 | 0.56 | 0.55 | 92 | 1000.9 |
| 20260504020017 | 39 | 360 | 7.8 | 12.2 | 0.00 | 0.56 | 0.55 | 91 | 1000.8 |
| 20260504014524 | 39 | 360 | 7.0 | 14.8 | 0.00 | 0.56 | 0.55 | 91 | 1000.8 |
| 20260504013014 | 39 | 360 | 8.7 | 14.8 | 0.00 | 0.56 | 0.55 | 92 | 1000.8 |
| 20260504011513 | 39 | 360 | 7.8 | 12.2 | 0.00 | 0.56 | 0.55 | 92 | 1000.8 |
| 20260504010012 | 39 | 321 | 7.0 | 10.4 | 0.00 | 0.56 | 0.55 | 91 | 1000.7 |
| 20260504004512 | 39 | 327 | 7.0 | 11.3 | 0.00 | 0.56 | 0.55 | 92 | 1000.7 |
| 20260504003011 | 39 | 323 | 6.1 | 9.6 | 0.00 | 0.56 | 0.55 | 92 | 1000.5 |
| 20260504001511 | 39 | 323 | 8.7 | 13.0 | 0.01 | 0.56 | 0.55 | 92 | 1000.5 |
| 20260504000027 | 39 | 355 | 7.0 | 13.9 | 0.01 | 0.56 | 0.55 | 92 | 1000.5 |
| 20260503234509 | 39 | 332 | 9.6 | 16.5 | 0.01 | 0.57 | 0.55 | 92 | 1000.3 |
| 20260503233009 | 39 | 321 | 7.0 | 12.2 | 0.01 | 0.57 | 0.55 | 92 | 1000.2 |
| 20260503231509 | 39 | 336 | 7.0 | 12.2 | 0.00 | 0.56 | 0.54 | 92 | 1000.3 |
| 20260503230008 | 39 | 315 | 8.7 | 13.0 | 0.00 | 0.56 | 0.54 | 92 | 1000.2 |
| 20260503224507 | 40 | 360 | 7.0 | 12.2 | 0.00 | 0.59 | 0.54 | 92 | 1000.3 |
| 20260503223006 | 40 | 346 | 7.0 | 13.9 | 0.00 | 0.59 | 0.54 | 91 | 1000.2 |
| 20260503221506 | 40 | 329 | 9.6 | 15.6 | 0.00 | 0.59 | 0.54 | 91 | 1000.2 |
| 20260503220005 | 40 | 328 | 7.8 | 13.0 | 0.01 | 0.59 | 0.54 | 91 | 1000.2 |
| 20260503214511 | 40 | 333 | 7.8 | 12.2 | 0.01 | 0.64 | 0.54 | 92 | 1000.3 |
| 20260503213100 | 40 | 336 | 7.8 | 12.2 | 0.01 | 0.64 | 0.54 | 92 | 1000.5 |
| 20260503211559 | 40 | 333 | 10.4 | 17.4 | 0.02 | 0.64 | 0.54 | 92 | 1000.7 |
| 20260503210100 | 40 | 321 | 6.1 | 9.6 | 0.02 | 0.63 | 0.53 | 93 | 1000.8 |
| 20260503204607 | 40 | 360 | 5.2 | 10.4 | 0.03 | 0.67 | 0.53 | 93 | 1001.1 |
| 20260503203105 | 39 | 355 | 6.1 | 10.4 | 0.04 | 0.67 | 0.53 | 93 | 1001.1 |
| 20260503201555 | 39 | 338 | 7.0 | 10.4 | 0.04 | 0.66 | 0.52 | 93 | 1001.2 |
| 20260503200051 | 39 | 351 | 5.2 | 9.6 | 0.04 | 0.65 | 0.51 | 93 | 1001.5 |
| 20260503194606 | 39 | 337 | 6.1 | 8.7 | 0.04 | 0.64 | 0.50 | 93 | 1001.8 |
| 20260503193047 | 38 | 340 | 7.0 | 10.4 | 0.05 | 0.63 | 0.49 | 93 | 1002.0 |
| 20260503191545 | 38 | 350 | 6.1 | 11.3 | 0.05 | 0.62 | 0.48 | 93 | 1002.2 |
| 20260503190057 | 38 | 328 | 3.5 | 11.3 | 0.05 | 0.61 | 0.47 | 93 | 1002.4 |
| 20260503184541 | 39 | 37 | 2.6 | 9.6 | 0.05 | 0.60 | 0.46 | 93 | 1002.6 |
| 20260503183043 | 39 | 328 | 5.2 | 8.7 | 0.04 | 0.57 | 0.44 | 93 | 1002.8 |
| 20260503181539 | 39 | 340 | 5.2 | 7.8 | 0.03 | 0.56 | 0.43 | 93 | 1003.0 |
| 20260503180039 | 39 | 341 | 3.5 | 8.7 | 0.03 | 0.56 | 0.42 | 93 | 1003.1 |
| 20260503174538 | 38 | 360 | 4.3 | 8.7 | 0.03 | 0.55 | 0.41 | 93 | 1003.1 |
| 20260503173106 | 38 | 346 | 5.2 | 7.8 | 0.03 | 0.54 | 0.40 | 93 | 1002.9 |
| 20260503171540 | 39 | 360 | 2.6 | 7.8 | 0.04 | 0.54 | 0.40 | 93 | 1002.9 |
| 20260503130113 | 37 | 355 | 0.0 | 0.0 | 0.06 | 0.33 | 0.19 | 96 | 1006.8 |
| 20260503120106 | 37 | 32 | 0.0 | 0.0 | 0.05 | 0.27 | 0.13 | 96 | 1007.4 |
| 20260503081552 | 37 | 137 | 0.0 | 0.0 | 0.01 | 0.15 | 0.01 | 96 | 1008.4 |
| 20260503071541 | 36 | 137 | 0.0 | 0.0 | 0.00 | 0.14 | 0.00 | 95 | 1008.6 |